Zurück zum Katalog

STARLINK-34569

AktivKommunikationVLEO
NORAD 64610·PAYLOAD·🇺🇸 United States

Gestartet Jun 25, 2025 von Cape Canaveral Space Force Station

Loading…

Nächste Überflüge (nächste 24 Stunden)

TLE

AktuellSource: CelesTrak SupGP

Epoche: Sep 15, 2026, 03:22 UTC

1 64610C 25137S   26258.14076389 -.00025661  00000+0 -75782-3 0  2587
2 64610  53.1572 172.5967 0001163  82.5271  82.5433 15.34417486    14

Verfolge STARLINK-34569 in Echtzeit mit AllMySat

Download on the App Store